Wind_Speed
43 43 42 42 42 43 43 44 44 45 44 42 41 41 41 41 41 42 41 40 39 39 39 39 39 38 38 39 39 39 40 41 41 41 41 42 43 44 44 45 45 45 45
43 43 43 43 42 42 43 44 45 45 45 43 41 41 41 41 42 42 41 40 40 39 38 38 38 38 38 39 39 39 40 40 40 40 41 42 43 44 44 44 44 45 45
44 43 43 43 43 42 42 42 43 44 44 44 42 41 41 41 40 40 40 40 40 40 39 37 37 38 38 38 39 39 39 40 40 41 42 42 43 43 42 43 44 45 45
42 43 43 42 42 42 42 42 42 42 43 43 43 41 41 41 41 40 40 39 39 39 39 39 38 37 37 37 37 38 38 39 40 40 41 40 40 41 41 42 43 44 44
39 41 41 41 41 42 42 41 41 40 41 41 41 41 41 40 40 40 40 39 39 38 38 38 37 36 36 36 36 36 37 38 39 39 39 38 39 40 41 42 42 43 43
38 39 40 40 40 40 39 40 39 39 39 39 40 40 39 39 39 39 40 39 39 38 37 37 36 35 35 35 36 36 36 37 38 38 37 38 39 40 40 42 42 42 42
36 37 37 38 38 39 39 39 39 39 39 39 40 40 40 40 40 40 39 38 37 37 37 36 36 35 35 35 35 36 36 37 37 37 37 38 39 40 41 42 42 41 41
34 35 36 36 36 37 38 38 39 39 39 39 39 39 39 39 38 38 39 38 37 36 36 36 36 36 36 35 35 35 36 36 36 36 37 38 39 40 42 41 41 40 39
32 33 35 35 36 36 37 37 37 37 38 38 38 39 38 39 39 38 38 37 37 37 36 36 36 36 36 35 36 35 35 35 34 35 36 37 39 41 41 40 39 39 38
31 32 33 34 35 35 34 34 35 36 37 37 37 36 36 36 37 37 36 36 36 36 36 36 35 35 35 36 36 36 35 34 34 35 37 38 40 40 39 39 38 37 37
30 31 31 32 32 33 33 33 33 34 35 35 36 36 35 34 35 35 35 35 35 35 35 35 34 34 35 35 35 34 34 34 34 35 37 38 38 38 37 36 36 35 34
30 31 31 31 31 31 31 32 33 34 34 34 34 35 35 34 34 35 35 34 34 35 35 35 34 34 34 34 33 32 33 34 35 35 36 36 35 35 34 34 33 32 31
30 30 31 31 30 31 31 31 31 32 33 34 33 33 34 34 34 34 34 34 34 34 34 34 34 34 33 32 31 31 32 33 34 34 34 33 32 32 31 30 30 29 28
30 30 31 31 31 31 31 32 32 32 33 33 33 33 33 33 33 34 34 33 33 33 33 33 32 31 31 30 30 30 31 32 32 32 31 30 29 29 28 28 27 26 25
30 30 30 30 30 30 30 30 30 31 32 32 32 32 33 33 33 33 33 32 32 31 31 30 29 29 29 29 30 30 31 31 30 29 29 28 27 27 27 26 25 24 22
29 29 29 29 29 29 29 30 30 30 30 31 31 31 31 32 32 32 32 31 30 30 29 29 29 28 29 29 29 29 29 29 28 27 27 26 26 26 25 24 23 21 20
29 30 30 30 29 29 29 29 29 29 29 30 30 30 29 30 30 30 30 29 29 28 28 29 28 28 28 28 27 27 28 27 27 26 25 25 24 23 22 21 20 19 19
29 29 30 30 29 29 29 28 28 28 28 28 28 28 28 28 29 29 29 28 28 28 28 28 28 28 27 27 27 26 26 26 25 24 23 22 22 21 20 19 19 18 18
26 27 28 29 29 29 28 28 27 27 27 27 27 27 27 28 28 28 28 28 27 27 27 27 27 26 26 26 26 25 25 24 24 22 21 20 20 19 18 18 17 16 17
26 26 27 28 28 28 27 27 27 26 27 27 27 27 27 27 26 26 27 27 27 26 26 26 26 26 26 25 24 24 23 22 21 20 19 18 18 17 17 16 15 15 14
25 26 26 26 26 27 27 28 27 27 27 26 26 26 26 26 26 26 26 26 26 26 25 25 25 25 24 24 23 22 21 20 19 18 17 16 16 15 15 15 14 14 13
24 25 25 25 26 26 26 27 27 27 27 26 26 26 26 26 26 26 25 25 26 26 25 24 24 23 22 21 20 19 18 17 17 16 15 14 14 14 14 14 13 13 12
22 23 24 24 25 25 25 26 26 26 26 26 26 26 26 26 26 25 25 25 25 25 24 23 22 22 21 20 19 18 17 15 14 14 13 13 14 14 14 13 13 12 11
22 22 23 23 24 24 24 25 25 25 26 26 25 25 25 25 25 24 24 24 23 22 22 21 21 21 20 19 18 18 17 16 14 13 13 13 13 13 13 12 12 11 11
21 22 23 23 24 24 24 24 25 25 25 25 25 24 24 24 23 22 22 23 22 22 21 20 19 20 19 18 17 17 16 15 14 13 13 13 13 13 12 11 11 10 10
20 21 21 22 23 24 25 24 24 24 24 24 24 23 23 23 22 21 22 22 22 21 20 19 19 18 18 17 16 16 15 14 14 13 13 13 12 12 11 11 10 10 9
Wind_Direction
236 237 240 242 243 244 246 246 245 245 245 247 248 250 254 256 258 260 262 264 265 266 268 269 271 273 276 279 281 283 284 286 288 289 290 293 295 297 298 300 301 301 302
239 240 241 242 243 244 245 246 247 247 245 246 247 250 254 256 258 260 262 263 264 266 268 269 272 275 277 280 282 284 285 286 288 290 292 294 295 298 299 300 302 302 303
240 241 241 242 242 243 245 246 247 247 247 247 248 250 253 254 256 259 262 264 265 266 268 270 272 276 278 280 282 284 286 287 288 291 293 295 296 298 300 301 302 303 304
241 241 241 242 243 243 246 247 247 248 249 250 249 250 252 254 255 258 261 264 264 266 267 269 273 277 278 280 282 284 286 288 289 291 294 296 297 299 300 302 303 304 305
241 241 241 242 242 243 245 247 247 248 248 251 251 250 251 253 255 258 261 262 263 265 267 269 272 275 278 280 282 285 288 290 291 293 295 296 297 299 301 303 304 305 306
240 240 240 242 243 244 246 247 247 247 248 250 250 249 251 253 255 257 259 262 263 265 267 269 271 273 277 280 283 286 289 291 292 294 295 296 298 300 301 304 305 305 305
238 238 239 240 241 243 246 247 247 248 248 250 250 249 251 253 254 256 260 263 265 266 266 268 271 273 277 281 284 287 289 292 294 294 295 297 299 300 303 305 306 306 307
239 238 239 241 242 244 247 248 249 249 249 250 249 249 251 253 254 256 260 263 265 266 267 269 270 273 277 280 284 287 289 291 292 294 296 298 300 303 305 305 305 306 307
240 240 240 241 241 243 245 247 248 250 250 249 248 249 252 254 256 258 260 263 264 264 266 268 270 273 277 280 283 286 288 290 291 295 297 299 302 303 304 305 305 306 307
241 241 241 240 241 243 245 246 248 249 249 249 249 250 252 254 256 258 259 262 262 263 265 268 271 274 277 280 282 284 286 288 291 294 298 300 302 303 303 304 305 305 307
241 241 241 240 242 244 245 246 246 247 248 249 249 250 252 254 256 257 258 260 261 263 265 268 271 274 277 280 282 283 285 288 292 295 298 301 301 302 303 304 305 306 307
241 241 241 242 243 244 246 248 248 248 248 248 250 252 252 254 257 257 257 258 261 263 265 268 271 274 278 280 282 283 285 288 292 295 298 300 301 302 304 304 305 306 308
242 242 242 242 243 245 246 248 248 248 249 250 252 253 255 255 258 258 258 259 262 264 265 268 271 273 276 279 281 283 287 290 292 295 298 300 302 303 304 304 305 307 308
241 242 243 243 244 245 247 248 248 248 249 250 252 253 254 255 256 257 257 258 261 265 267 269 271 272 275 279 282 284 287 290 292 295 297 299 302 304 304 305 306 307 308
241 241 242 242 243 244 245 246 247 247 247 248 250 253 254 253 255 257 258 258 261 264 265 266 268 271 274 277 280 283 286 289 292 294 295 298 300 302 303 303 304 305 307
243 243 243 243 243 243 245 247 248 247 247 248 250 250 252 253 253 255 257 257 258 261 263 265 268 271 274 276 280 283 285 288 290 292 293 296 298 300 301 302 303 303 306
243 243 243 243 244 245 245 246 247 248 248 249 250 249 251 252 251 252 254 255 255 258 261 264 267 270 274 277 280 283 284 285 287 289 291 294 296 299 301 302 302 303 305
244 243 242 243 244 244 244 244 245 246 247 249 249 250 250 250 250 251 252 253 255 257 260 263 267 270 273 276 279 282 282 282 284 287 289 292 295 298 300 302 302 304 307
243 242 242 242 242 243 242 242 242 244 245 247 247 249 250 251 251 252 251 253 255 257 260 263 267 270 273 276 277 278 278 278 280 282 285 290 294 297 299 301 301 304 308
244 243 243 242 241 241 241 241 242 243 244 247 247 248 249 250 251 252 252 253 254 258 260 263 267 270 272 273 273 274 274 275 276 279 284 290 295 298 299 300 301 303 306
243 243 243 242 241 241 241 241 242 242 244 245 246 247 249 250 251 253 253 254 256 259 261 265 267 267 269 270 271 270 270 271 274 278 284 289 293 296 299 300 301 301 302
244 243 242 241 240 240 240 241 242 242 243 244 247 249 250 250 251 252 253 255 257 258 262 265 264 262 263 264 265 266 269 272 273 276 280 284 289 293 296 298 298 298 300
244 242 241 241 240 240 240 240 241 242 243 245 248 249 250 250 251 251 254 255 256 257 260 262 260 259 259 257 259 264 266 269 272 274 276 280 285 291 296 296 296 297 297
244 241 240 239 239 239 239 240 241 243 245 246 247 249 250 250 250 250 251 253 254 254 256 260 257 254 254 254 258 261 261 263 266 270 274 278 284 290 293 293 294 296 298
243 240 239 239 239 239 239 240 241 242 243 244 246 248 248 248 247 246 246 248 249 251 255 256 253 251 251 252 253 255 257 261 264 266 271 277 283 286 287 289 290 294 296
243 241 240 239 239 239 239 239 240 241 241 242 244 244 245 244 242 242 242 245 248 250 252 251 251 248 247 245 247 251 253 258 261 264 268 273 278 281 283 285 287 290 293
Height
5650 5654 5657 5661 5664 5667 5671 5674 5677 5680 5684 5687 5689 5692 5694 5696 5698 5700 5701 5702 5702 5702 5702 5702 5702 5701 5701 5699 5697 5696 5694 5692 5690 5688 5684 5680 5676 5672 5668 5663 5658 5653 5648
5641 5645 5648 5652 5655 5659 5662 5665 5668 5671 5674 5677 5680 5683 5685 5687 5689 5691 5692 5692 5693 5693 5693 5693 5693 5692 5691 5690 5688 5687 5685 5683 5680 5678 5675 5671 5667 5663 5658 5653 5648 5643 5637
5631 5635 5639 5642 5646 5649 5652 5655 5658 5661 5664 5668 5671 5673 5676 5678 5680 5681 5682 5683 5684 5684 5684 5684 5684 5683 5683 5681 5680 5678 5676 5673 5671 5668 5665 5661 5657 5653 5649 5644 5639 5633 5627
5622 5626 5630 5633 5636 5640 5643 5646 5649 5652 5655 5658 5661 5664 5666 5668 5670 5672 5673 5674 5675 5675 5675 5675 5675 5675 5674 5672 5671 5669 5666 5664 5661 5658 5655 5652 5648 5643 5639 5635 5631 5624 5618
5613 5617 5620 5624 5627 5630 5633 5637 5640 5643 5646 5649 5651 5654 5657 5659 5661 5663 5664 5665 5665 5666 5666 5667 5667 5666 5665 5664 5662 5660 5658 5655 5652 5649 5646 5643 5639 5635 5631 5626 5621 5615 5609
5604 5608 5611 5615 5618 5621 5624 5627 5630 5633 5636 5639 5642 5645 5648 5650 5652 5653 5655 5656 5656 5657 5657 5658 5658 5658 5656 5655 5653 5651 5649 5646 5643 5640 5637 5633 5630 5625 5621 5616 5611 5606 5600
5595 5599 5602 5606 5609 5612 5615 5618 5621 5624 5627 5630 5632 5635 5638 5640 5643 5644 5645 5646 5647 5647 5648 5649 5649 5649 5648 5646 5645 5642 5640 5637 5634 5631 5628 5624 5621 5617 5612 5607 5601 5595 5589
5586 5590 5593 5597 5600 5603 5606 5609 5612 5614 5617 5620 5623 5626 5628 5631 5633 5635 5636 5637 5638 5638 5639 5639 5640 5640 5639 5638 5636 5634 5631 5628 5625 5623 5619 5616 5611 5606 5602 5597 5591 5586 5581
5578 5581 5585 5588 5591 5594 5597 5600 5603 5605 5608 5611 5613 5616 5619 5621 5623 5625 5627 5628 5629 5630 5630 5631 5631 5631 5630 5629 5628 5626 5623 5620 5617 5614 5610 5606 5602 5597 5592 5587 5582 5577 5572
5570 5573 5576 5580 5583 5586 5589 5591 5594 5596 5599 5601 5604 5607 5609 5612 5614 5616 5618 5619 5621 5621 5622 5622 5622 5622 5621 5619 5618 5617 5615 5612 5609 5606 5602 5598 5593 5588 5582 5577 5573 5568 5563
5563 5566 5569 5572 5575 5577 5580 5583 5585 5588 5590 5592 5595 5598 5600 5602 5604 5607 5608 5610 5611 5612 5613 5613 5613 5613 5612 5611 5609 5607 5605 5603 5601 5597 5593 5589 5584 5579 5574 5569 5564 5559 5555
5555 5558 5561 5564 5567 5569 5572 5574 5576 5579 5581 5584 5586 5589 5591 5593 5596 5597 5599 5601 5602 5603 5604 5604 5604 5603 5603 5602 5600 5598 5597 5595 5592 5588 5585 5580 5575 5570 5566 5561 5556 5552 5547
5547 5550 5553 5556 5559 5561 5563 5566 5568 5570 5573 5575 5578 5580 5582 5584 5586 5588 5590 5592 5593 5594 5594 5595 5595 5595 5594 5593 5591 5590 5588 5586 5584 5580 5576 5572 5568 5563 5559 5555 5550 5546 5541
5540 5542 5545 5548 5550 5553 5555 5557 5560 5562 5564 5567 5569 5571 5574 5575 5577 5579 5581 5583 5584 5585 5585 5586 5586 5586 5585 5584 5583 5582 5580 5578 5575 5572 5568 5565 5561 5557 5552 5548 5544 5540 5537
5532 5534 5537 5539 5541 5544 5546 5548 5551 5553 5555 5558 5560 5562 5565 5567 5569 5570 5572 5574 5575 5576 5577 5577 5578 5577 5577 5576 5575 5574 5572 5570 5567 5564 5561 5558 5554 5551 5547 5543 5539 5535 5532
5524 5526 5529 5531 5533 5535 5538 5540 5542 5545 5547 5549 5551 5554 5556 5558 5560 5561 5563 5565 5566 5567 5568 5569 5569 5569 5569 5568 5567 5566 5564 5562 5560 5557 5555 5552 5548 5545 5541 5538 5534 5531 5528
5516 5518 5520 5523 5525 5527 5530 5532 5534 5536 5538 5540 5543 5545 5547 5549 5551 5553 5554 5556 5557 5559 5560 5561 5561 5561 5561 5560 5559 5558 5556 5554 5552 5551 5548 5546 5543 5539 5536 5533 5529 5526 5523
5507 5510 5512 5514 5517 5519 5521 5524 5526 5528 5530 5532 5535 5537 5539 5541 5543 5545 5546 5548 5550 5551 5552 5553 5553 5553 5553 5552 5551 5550 5549 5547 5546 5544 5542 5540 5537 5534 5531 5528 5525 5522 5519
5499 5502 5504 5506 5508 5511 5513 5515 5518 5520 5523 5524 5527 5529 5531 5533 5535 5537 5538 5540 5542 5543 5544 5545 5545 5545 5545 5545 5544 5543 5542 5541 5539 5538 5536 5534 5532 5529 5526 5524 5521 5518 5516
5492 5494 5496 5498 5500 5503 5505 5508 5510 5513 5515 5517 5520 5522 5524 5526 5528 5529 5531 5532 5534 5535 5536 5537 5537 5537 5537 5537 5536 5536 5535 5534 5533 5532 5531 5529 5527 5524 5522 5520 5517 5515 5513
5484 5486 5488 5491 5493 5495 5497 5500 5502 5505 5508 5510 5512 5515 5517 5519 5520 5522 5523 5525 5526 5528 5529 5529 5529 5530 5530 5530 5530 5529 5529 5528 5528 5527 5525 5524 5522 5520 5518 5516 5514 5512 5510
5477 5479 5481 5483 5485 5488 5490 5493 5495 5498 5501 5503 5505 5507 5509 5511 5513 5514 5516 5517 5519 5520 5521 5522 5522 5522 5523 5523 5523 5524 5523 5523 5522 5522 5521 5520 5518 5517 5515 5513 5511 5509 5507
5470 5471 5474 5476 5478 5481 5483 5485 5488 5491 5493 5496 5498 5500 5502 5503 5505 5507 5508 5510 5511 5513 5514 5514 5515 5516 5516 5517 5518 5518 5519 5518 5518 5517 5517 5516 5514 5513 5511 5510 5508 5506 5504
5462 5464 5466 5469 5471 5473 5476 5478 5481 5483 5486 5488 5490 5492 5494 5496 5497 5499 5501 5502 5504 5505 5507 5508 5508 5510 5511 5512 5512 5513 5513 5513 5513 5513 5512 5512 5511 5509 5508 5506 5505 5503 5502
5455 5457 5459 5461 5464 5466 5469 5471 5474 5476 5478 5481 5483 5485 5487 5489 5490 5492 5494 5496 5497 5499 5500 5501 5502 5504 5505 5506 5507 5508 5508 5508 5508 5508 5508 5508 5507 5506 5505 5503 5502 5500 5499
5449 5450 5452 5454 5456 5459 5461 5464 5466 5469 5471 5473 5476 5478 5480 5482 5484 5486 5488 5490 5491 5493 5494 5496 5497 5498 5500 5501 5502 5503 5503 5504 5504 5504 5504 5504 5503 5502 5501 5500 5499 5498 5496